This demonstration page uses our WeatherBlox Daily Observations layout. Learn more.

Left ArrowRight Arrow

34.02893, -84.19858

Hourly Observations for November 15, 2022

Temp ( °F °C ) Dew Point ( °F °C ) Humidity (%) Winds ( mph kmh ) Pressure ( in mb ) Visibility ( mi km ) Precip ( " mm )
12:53 am 00:53 Cloudy 47 8.3 34 1.1 60 60 VRB 6 9 30.21 1023 10 16 0.00 0.00
1:53 am 01:53 Cloudy 46 7.8 34 1.1 63 63 ENE 8 13 30.18 1022 10 16 0.00 0.00
2:53 am 02:53 Cloudy 46 7.8 35 1.7 65 65 undefined N/A 30.20 1023 10 16 0.00 0.00
3:53 am 03:53 Cloudy 46 7.8 36 2.2 68 68 E 9 15 30.15 1021 10 16 0.00 0.00
4:16 am 04:16 Cloudy 46 7.8 37 2.8 71 71 VRB 6 9 30.14 1021 10 16 0.00 0.00
4:26 am 04:26 Cloudy with Light Rain 45 7.2 37 2.8 74 74 E 12 19 30.12 1020 10 16 0.01 0.13
4:53 am 04:53 Cloudy with Light Rain 44 6.7 39 3.9 82 82 Calm 30.18 1022 9 14 0.01 0.25
5:53 am 05:53 Cloudy with Light Rain 44 6.7 41 5 89 89 VRB 5 7 30.16 1022 6 10 0.04 1.02
6:53 am 06:53 Cloudy with Light Rain 43 6.1 41 5 93 93 undefined N/A 30.14 1021 8 13 0.05 1.27
7:53 am 07:53 Cloudy with Light Rain 43 6.1 41 5 93 93 undefined N/A 30.14 1021 6 10 0.02 0.51
8:11 am 08:11 Cloudy 43 6.1 42 5.6 97 97 VRB 3 6 30.16 1021 10 16 0.01 0.25
8:44 am 08:44 Cloudy with Light Rain 43 6.1 42 5.6 97 97 E 3 6 30.15 1021 3 4 0.06 1.52
8:53 am 08:53 Cloudy with Light Rain 43 6.1 42 5.6 97 97 VRB 5 7 30.15 1021 4 6 0.07 1.78
9:53 am 09:53 Cloudy with Rain 43 6.1 42 5.6 97 97 VRB 5 7 30.16 1022 2 3 0.03 0.76
10:01 am 10:01 Cloudy with Rain 43 6.1 42 5.6 97 97 VRB 6 9 30.16 1021 2 2 0.03 0.76
10:19 am 10:19 Cloudy with Light Rain 43 6.1 41 5 93 93 ENE 8 13 30.14 1021 3 4 0.09 2.29
10:53 am 10:53 Cloudy with Rain 43 6.1 42 5.6 97 97 VRB 5 7 30.14 1021 2 3 0.15 3.81
11:53 am 11:53 Cloudy 45 7.2 43 6.1 93 93 VRB 5 7 30.11 1020 10 16 0.01 0.25
12:42 pm 12:42 Cloudy with Rain 45 7.2 44 6.7 97 97 VRB 3 6 30.08 1019 2 2 0.04 1.02
12:53 pm 12:53 Cloudy with Rain 44 6.7 43 6.1 96 96 VRB 5 7 30.07 1018 2 2 0.07 1.78
1:07 pm 13:07 Cloudy with Light Rain 44 6.7 43 6.1 96 96 VRB 5 7 30.07 1018 3 4 0.03 0.76
1:15 pm 13:15 Cloudy with Light Rain 45 7.2 44 6.7 97 97 Calm 30.05 1018 7 11 0.03 0.76
1:39 pm 13:39 Cloudy 45 7.2 44 6.7 97 97 VRB 6 9 30.04 1017 10 16 0.04 1.02
1:53 pm 13:53 Cloudy 45 7.2 44 6.7 97 97 VRB 3 6 30.03 1017 10 16 0.04 1.02
2:35 pm 14:35 Cloudy with Light Rain 45 7.2 44 6.7 97 97 NW 6 9 30.08 1019 2 3 0.02 0.51
2:42 pm 14:42 Cloudy with Rain 45 7.2 44 6.7 97 97 NNW 6 9 30.09 1019 1 2 0.05 1.27
2:53 pm 14:53 Cloudy with Light Rain 46 7.8 44 6.7 93 93 NNW 7 11 30.09 1019 2 3 0.08 2.03
3:13 pm 15:13 Cloudy with Mist and Fog 46 7.8 44 6.7 93 93 N 8 13 30.10 1019 2 3 0.01 0.13
3:23 pm 15:23 Cloudy with Mist and Fog 46 7.8 44 6.7 93 93 N 7 11 30.10 1019 2 3 0.01 0.13
3:37 pm 15:37 Cloudy with Mist and Fog 46 7.8 45 7.2 96 96 N 5 7 30.10 1019 2 3 0.01 0.25
3:53 pm 15:53 Cloudy with Light Rain 46 7.8 45 7.2 96 96 N 6 9 30.10 1019 4 6 0.01 0.25
4:39 pm 16:39 Cloudy with Mist and Fog 46 7.8 45 7.2 96 96 E 3 6 30.09 1019 4 6 0.01 0.25
4:51 pm 16:51 Cloudy 46 8 45 7 93 93 VRB 3 6 30.10 1019 10 16 0.01 0.25
4:53 pm 16:53 Cloudy 46 7.8 45 7.2 96 96 Calm 30.10 1019 10 16 0.01 0.25
5:13 pm 17:13 Cloudy 47 8.3 45 7.2 93 93 Calm 30.09 1019 10 16 0.00 0.00
5:32 pm 17:32 Cloudy 46 7.8 45 7.2 96 96 ESE 3 6 30.09 1019 10 16 0.00 0.00
5:49 pm 17:49 Cloudy 46 8 45 7 93 93 Calm 30.09 1019 10 16 0.00 0.00
5:53 pm 17:53 Cloudy 46 7.8 45 7.2 96 96 N 3 6 30.10 1019 10 16 0.00 0.00
6:20 pm 18:20 Cloudy 47 8.3 45 7.2 93 93 N 3 6 30.11 1020 10 16 0.00 0.00
6:53 pm 18:53 Cloudy 47 8.3 45 7.2 93 93 Calm 30.13 1020 10 16 0.00 0.00
7:02 pm 19:02 Cloudy 47 8.3 45 7.2 93 93 W 5 7 30.13 1020 10 16 0.00 0.00
7:53 pm 19:53 Cloudy 47 8.3 45 7.2 93 93 Calm 30.14 1021 10 16 0.00 0.00
8:53 pm 20:53 Cloudy 47 8.3 46 7.8 97 97 NW 8 13 30.15 1021 9 14 0.00 0.00
9:53 pm 21:53 Cloudy 48 8.9 46 7.8 93 93 NNW 13 20 30.14 1021 10 16 0.00 0.00
10:53 pm 22:53 Cloudy 48 8.9 45 7.2 89 89 NW 8 13 30.16 1021 10 16 0.00 0.00
11:07 pm 23:07 Cloudy 48 8.9 45 7.2 89 89 NW 10 17 30.15 1021 10 16 0.00 0.00
11:42 pm 23:42 Partly Cloudy 47 8.3 44 6.7 90 90 NW 8 13 30.15 1021 10 16 0.00 0.00
11:53 pm 23:53 Partly Cloudy 47 8.3 44 6.7 90 90 NW 9 15 30.14 1021 10 16 0.00 0.00

Powered by AerisWeather